カタログに戻る

STARLINK-3927

運用中通信VLEO
NORAD 52569·PAYLOAD·🇺🇸 United States

打ち上げ May 13, 2022 から Vandenberg Space Force Base

Loading…

次のパス (今後24時間)

TLE

最新Source: CelesTrak SupGP

元期: Sep 15, 2026, 01:56 UTC

1 52569C 22051AN  26258.08104167  .00040192  00000+0  12926-2 0  2582
2 52569  53.1590 335.5103 0001231  78.7101   7.1454 15.31679409    10

AllMySatでSTARLINK-3927をリアルタイム追跡

Download on the App Store